Regional Weather Roundup
Issued by NWS Newport/Morehead, NC

Current Version | Previous Version | Graphics & Text | Print | Product List | Glossary On
Versions: 1 2 3 4 5 6 7 8 9 10 11 12 13 14 15 16 17 18 19 20 21 22 23 24 25 26 27 28 29 30 31 32 33 34 35 36 37 38 39 40 41 42 43 44 45 46 47 48 49 50
922 ASUS42 KMHX 190225 RWRMHX WEATHER ROUNDUP FOR EASTERN NORTH CAROLINA NATIONAL WEATHER SERVICE NEWPORT/MOREHEAD CITY NC 900 PM EST WED JAN 18 2017 NOTE: "FAIR" INDICATES FEW OR NO CLOUDS BELOW 12,000 FEET WITH NO SIGNIFICANT WEATHER AND/OR OBSTRUCTIONS TO VISIBILITY NCZ015>017-031-032-045>047-102-103-190300- NORTH COAST CITY SKY/WX TMP DP RH WIND PRES REMARKS EDENTON PTCLDY 45 42 91 CALM 30.06S ELIZABETH CITY CLEAR 45 42 89 W5 30.04S KITTY HAWK NOT AVBL MANTEO CLEAR 46 45 97 N3 30.04R $$ NCZ045>047-081-094-103-104-190300- CENTRAL COAST CITY SKY/WX TMP DP RH WIND PRES REMARKS FRISCO CLEAR 50 46 86 VRB3 30.03R $$ NCZ095-097-098-100-101-190300- SOUTHERN COAST CITY SKY/WX TMP DP RH WIND PRES REMARKS BEAUFORT CLEAR 48 42 80 CALM 30.05S CEDAR ISLAND NOT AVBL JACKSONVILLE CLEAR 52 46 80 E8 30.04 PINEY ISLAND CLEAR N/A N/A N/A N3 30.05R WILMINGTON CLEAR 57 40 52 NE5 30.03R $$ NCZ011>013-027>030-043-044-078>080-089-090>093-098-190300- COASTAL PLAIN CITY SKY/WX TMP DP RH WIND PRES REMARKS AHOSKIE N/A 42 42 97 CALM 30.06S CLINTON CLEAR 52 41 68 NE3 30.04S ELIZABETHTOWN CLEAR 53 42 64 CALM 30.04R GOLDSBORO CLEAR 51 39 64 CALM 30.03R GREENVILLE PTCLDY 48 45 87 CALM 30.07R HAVELOCK CLEAR 46 43 89 SE3 30.06R KENANSVILLE CLEAR 43 39 87 CALM 30.04R KINSTON CLEAR 45 39 81 CALM 30.05R NEW BERN CLEAR 46 43 89 CALM 30.06R RICHLANDS CLEAR 46 40 79 NE7 30.05R ROCKY MOUNT CLEAR 47 39 74 CALM 30.05R WASHINGTON PTCLDY 45 43 93 CALM N/A WHITEVILLE CLEAR 53 45 73 CALM 30.03R $$ AMZ130-135-150-152-154-156-158-170-250-252-270-ANZ085-086-088-633-658-670-190300- MARINE OBSERVATIONS STATION/POSITION TIME TEMP WIND PRES WAVE SWELL AIR SEA DIR/SP/G HT/PER HT/PER (UTC) (F) (DEG/KT/KT) (MB) (FT/S) (FT/S) CHESAPEAKE LIGHT NOT AVBL 64 E VA BEACH 0150 52 56 360/ 19/ 23 1016.1 5/ 6 DUCK 0136 50 46 330/ 10/ 12 1016.1 2 E DUCK 0200 46 N/A 2/ 4 OREGON INLET 0148 330/ 5/ 7 N/A 13E OREGON INLT NOT AVBL HATTERAS CG 0136 50 55 360/ 12/ 14 1016.2 DIAMOND BUOY 0150 56 73 20/ 23/ 29 1015.5 6/ 6 CAPE LOOKOUT 0100 52 10/ 10/ 13 1016.9 BEAUFORT LAB 0136 50 51 10/ 4/ 4 1016.6 30 SE NEW RVR IN 0108 57 62 50/ 17/ 23 1016.8 30 SE NEW RVR IN 0213 62 N/A 5/ 5 27 SE WRIGHTSVLE 0208 60 68 80/ 16/ 23 1016.4 5 SE WRIGHTSVLE NOT AVBL 225 S CAPE HAT 0050 70 72 290/ 21/ 27 1013.5 9/ 8 41 SE CHARLESTON 0050 70 72 260/ 17/ 19 1015.7 5/ 6 2/ 9 $$

USA.gov is the U.S. government's official web portal to all federal, state and local government web resources and services.